EW1133 Weather Reports


time (UTC)temp
F
wind
direction
speed
knots
gust
knots
rain 1hr
in
rain 24hr
in
rain mn
in
humidity
%
barometer
mb
20260507095351 56 13 0.0 0.0 0.00 0.00 0.00 68 1020.8
20260507094822 56 13 0.0 0.0 0.00 0.00 0.00 69 1020.8
20260507094323 56 13 0.0 0.0 0.00 0.00 0.00 69 1020.8
20260507093815 56 13 0.0 0.0 0.00 0.00 0.00 69 1020.9
20260507093328 56 13 0.0 0.0 0.00 0.00 0.00 70 1021.0
20260507092823 56 13 0.0 0.0 0.00 0.00 0.00 69 1021.0
20260507092316 56 13 0.0 0.0 0.00 0.00 0.00 70 1021.0
20260507091831 56 13 0.0 0.0 0.00 0.00 0.00 70 1021.1
20260507091323 56 13 0.0 0.0 0.00 0.00 0.00 70 1021.2
20260507090818 56 13 0.0 0.0 0.00 0.00 0.00 71 1021.2
20260507090352 56 13 0.0 0.0 0.00 0.00 0.00 71 1021.2
20260507085828 56 13 0.0 0.0 0.00 0.00 0.00 71 1021.2
20260507085324 56 13 0.0 0.0 0.00 0.00 0.00 71 1021.1
20260507084837 56 13 0.0 0.0 0.00 0.00 0.00 71 1021.2
20260507084329 56 13 0.0 0.0 0.00 0.00 0.00 71 1021.1
20260507083821 56 13 0.0 0.0 0.00 0.00 0.00 71 1021.1
20260507083332 56 13 0.0 0.0 0.00 0.00 0.00 71 1021.1
20260507082826 56 13 0.0 0.0 0.00 0.00 0.00 72 1021.1
20260507082318 56 13 0.0 0.0 0.00 0.00 0.00 71 1021.1
20260507081818 56 13 0.0 0.0 0.00 0.00 0.00 72 1021.1
20260507081330 56 13 0.0 0.0 0.00 0.00 0.00 72 1021.1
20260507080825 56 13 0.0 0.0 0.00 0.00 0.00 71 1021.1
20260507080320 56 13 0.0 0.0 0.00 0.00 0.00 71 1021.1
20260507075833 56 13 0.0 0.9 0.00 0.00 0.00 71 1021.1
20260507075324 56 13 0.0 0.9 0.00 0.00 0.00 71 1021.1
20260507074820 56 13 0.0 0.9 0.00 0.00 0.00 71 1021.2
20260507074332 56 13 0.0 0.0 0.00 0.00 0.00 70 1021.1
20260507073824 56 13 0.0 0.9 0.00 0.00 0.00 70 1021.2
20260507073338 56 13 0.0 0.9 0.00 0.00 0.00 70 1021.1
20260507072818 56 13 0.0 0.0 0.00 0.00 0.00 70 1021.1
20260507072333 56 13 0.0 0.0 0.00 0.00 0.00 70 1021.1
20260507071847 56 13 0.0 0.0 0.00 0.00 0.00 70 1021.0
20260507071318 56 13 0.0 0.0 0.00 0.00 0.00 71 1021.0
20260507070831 56 13 0.0 0.0 0.00 0.00 0.00 71 1021.0
20260507070327 56 13 0.0 0.9 0.00 0.00 0.00 70 1020.9
20260507065839 56 13 0.0 0.9 0.00 0.00 0.00 70 1021.0
20260507065330 56 13 0.0 1.7 0.00 0.00 0.00 70 1021.0
20260507064823 57 13 0.0 1.7 0.00 0.00 0.00 70 1021.0
20260507064319 57 13 0.0 0.9 0.00 0.00 0.00 70 1021.0
20260507063852 57 13 0.0 0.9 0.00 0.00 0.00 71 1020.9
20260507063323 57 15 0.0 0.9 0.00 0.00 0.00 71 1021.0
20260507062818 57 15 0.0 0.0 0.00 0.00 0.00 71 1021.0
20260507062351 57 15 0.0 2.6 0.00 0.00 0.00 72 1021.0
20260507061825 57 15 0.0 2.6 0.00 0.00 0.00 71 1021.0
20260507061322 57 39 0.0 1.7 0.00 0.00 0.00 71 1021.0
20260507060833 57 39 0.0 1.7 0.00 0.00 0.00 71 1021.1
20260507060326 57 53 0.0 1.7 0.00 0.00 0.00 71 1021.1
20260507055823 57 18 0.0 0.9 0.00 0.00 0.00 71 1021.0
20260507055316 57 18 0.0 0.9 0.00 0.00 0.00 71 1021.0
20260507054811 57 18 0.0 0.9 0.00 0.00 0.00 72 1020.9
20260507054327 58 18 0.0 0.0 0.00 0.00 0.00 71 1020.9
20260507053820 58 18 0.0 0.0 0.00 0.00 0.00 71 1021.0
20260507053332 58 18 0.0 0.9 0.00 0.00 0.00 71 1021.0
20260507052845 58 18 0.0 0.9 0.00 0.00 0.00 71 1020.9
20260507052316 58 18 0.0 0.9 0.00 0.00 0.00 70 1020.9
20260507051828 58 18 0.0 1.7 0.00 0.00 0.00 71 1020.9
20260507051324 58 18 0.0 1.7 0.00 0.00 0.00 70 1020.9
20260507050817 58 313 0.0 0.9 0.00 0.00 0.00 70 1021.0
20260507050332 58 313 0.0 2.6 0.00 0.00 0.00 70 1020.9
20260507045827 59 295 0.0 2.6 0.00 0.00 0.00 70 1021.0
20260507045320 59 26 0.0 0.9 0.00 0.00 0.00 70 1021.0
20260507044813 59 26 0.0 0.9 0.00 0.00 0.00 69 1021.0
20260507044328 59 26 0.0 0.9 0.00 0.00 0.00 70 1021.0
20260507043822 59 26 0.0 0.0 0.00 0.00 0.00 69 1020.9
20260507043319 59 26 0.0 0.9 0.00 0.00 0.00 69 1020.9
20260507042831 59 26 0.0 0.9 0.00 0.00 0.00 68 1020.8
20260507042343 60 26 0.0 0.9 0.00 0.00 0.00 68 1020.7
20260507041818 60 26 0.0 1.7 0.00 0.00 0.00 68 1020.7
20260507041329 60 26 0.0 1.7 0.00 0.00 0.00 67 1020.7
20260507040825 60 26 0.0 1.7 0.00 0.00 0.00 67 1020.6
20260507040318 60 26 0.0 1.7 0.00 0.00 0.00 67 1020.5
20260507035831 60 26 0.0 1.7 0.00 0.00 0.00 66 1020.5
20260507035346 61 11 0.0 1.7 0.00 0.00 0.00 66 1020.4
20260507034822 61 14 0.0 1.7 0.00 0.00 0.00 66 1020.3
20260507034318 61 13 0.0 0.9 0.00 0.00 0.00 66 1020.3
20260507033831 61 13 0.0 0.9 0.00 0.00 0.00 66 1020.2
20260507033344 62 13 0.0 1.7 0.00 0.00 0.00 65 1020.1
20260507032818 62 13 0.0 1.7 0.00 0.00 0.00 65 1020.1
20260507032332 62 41 0.0 0.9 0.00 0.00 0.00 65 1019.9
20260507031844 62 41 0.0 0.9 0.00 0.00 0.00 65 1019.9
20260507031317 62 41 0.0 0.9 0.00 0.00 0.00 65 1019.8
20260507030833 63 41 0.0 0.9 0.00 0.00 0.00 64 1019.8
20260507030346 63 41 0.0 0.0 0.00 0.00 0.00 65 1019.7
20260507025844 63 41 0.0 0.0 0.00 0.00 0.00 65 1019.7
20260507025315 63 41 0.0 0.9 0.00 0.00 0.00 65 1019.6
20260507024832 63 41 0.0 0.9 0.00 0.00 0.00 65 1019.6
20260507024325 63 41 0.0 0.9 0.00 0.00 0.00 64 1019.5
20260507023820 64 41 0.0 0.9 0.00 0.00 0.00 64 1019.5
20260507023333 64 41 0.0 0.0 0.00 0.00 0.00 63 1019.5
20260507022846 64 41 0.0 0.9 0.00 0.00 0.00 63 1019.5
20260507022318 64 41 0.0 1.7 0.00 0.00 0.00 63 1019.5
20260507021819 64 41 0.0 1.7 0.00 0.00 0.00 62 1019.5
20260507021352 65 41 0.0 0.9 0.00 0.00 0.00 61 1019.4
20260507020823 65 41 0.0 0.9 0.00 0.00 0.00 61 1019.4
20260507020315 65 41 0.0 0.9 0.00 0.00 0.00 61 1019.4
20260507015848 66 41 0.0 1.7 0.00 0.00 0.00 61 1019.4
20260507015319 66 41 0.0 1.7 0.00 0.00 0.00 60 1019.4
20260507014814 66 41 0.0 1.7 0.00 0.00 0.00 60 1019.5
20260507014349 66 41 0.0 1.7 0.00 0.00 0.00 60 1019.5
20260507013823 67 5 0.9 3.5 0.00 0.00 0.00 59 1019.5
20260507013316 67 27 0.0 0.9 0.00 0.00 0.00 59 1019.5
20260507012847 67 43 0.0 0.9 0.00 0.00 0.00 59 1019.5
20260507012323 68 43 0.0 0.9 0.00 0.00 0.00 59 1019.4
20260507011815 68 43 0.0 2.6 0.00 0.00 0.00 59 1019.4
20260507011329 68 5 0.0 3.5 0.00 0.00 0.00 59 1019.4
20260507010841 68 16 0.0 2.6 0.00 0.00 0.00 59 1019.4
20260507010333 68 36 0.0 2.6 0.00 0.00 0.00 59 1019.4
20260507005826 69 9 0.0 0.9 0.00 0.00 0.00 59 1019.4
20260507005319 69 9 0.0 2.6 0.00 0.00 0.00 59 1019.4
20260507004814 69 18 0.9 2.6 0.00 0.00 0.00 58 1019.4
20260507004334 69 16 0.0 3.5 0.00 0.00 0.00 59 1019.3
20260507003827 70 18 0.0 3.5 0.00 0.00 0.00 58 1019.3
20260507003342 70 14 0.0 1.7 0.00 0.00 0.00 58 1019.2
20260507002815 70 355 0.9 1.7 0.00 0.00 0.00 58 1019.3
20260507002328 70 23 0.0 2.6 0.00 0.00 0.00 58 1019.2
20260507001821 70 20 0.9 2.6 0.00 0.00 0.00 58 1019.2
20260507001334 71 40 0.0 0.9 0.00 0.00 0.00 57 1019.2
20260507000827 71 40 0.0 0.9 0.00 0.00 0.00 57 1019.2
20260507000343 71 40 0.0 0.9 0.00 0.00 0.00 57 1019.3
20260506235818 71 40 0.0 0.9 0.00 0.00 0.00 57 1019.2
20260506235331 71 40 0.0 0.9 0.00 0.00 0.00 57 1019.3
20260506234825 71 40 0.0 2.6 0.00 0.00 0.00 57 1019.3
20260506234318 71 40 0.9 2.6 0.00 0.00 0.00 56 1019.3
20260506233830 71 35 0.0 2.6 0.00 0.00 0.00 56 1019.2
20260506233344 71 13 0.0 0.0 0.00 0.00 0.00 56 1019.2
20260506232816 71 13 0.0 0.9 0.00 0.00 0.00 56 1019.2
20260506232328 71 13 0.0 0.9 0.00 0.00 0.00 55 1019.2
20260506231820 71 13 0.0 1.7 0.00 0.00 0.00 55 1019.3
20260506231316 72 13 0.0 1.7 0.00 0.00 0.00 56 1019.3
20260506230812 72 13 0.0 0.9 0.00 0.00 0.00 55 1019.3
20260506230328 72 13 0.0 1.7 0.00 0.00 0.00 55 1019.5
20260506225823 72 13 0.0 1.7 0.00 0.00 0.00 54 1019.5
20260506225335 71 15 0.0 0.0 0.00 0.00 0.00 56 1019.6
20260506224826 71 15 0.0 0.0 0.00 0.00 0.00 57 1019.6
20260506224339 71 15 0.0 0.0 0.00 0.00 0.00 56 1019.7
20260506223830 71 15 0.0 1.7 0.00 0.00 0.00 57 1019.7
20260506223324 71 15 0.0 1.7 0.00 0.00 0.00 58 1019.7
20260506222822 71 15 0.0 0.9 0.00 0.00 0.00 58 1019.8
20260506222333 70 15 0.0 0.9 0.00 0.00 0.00 59 1019.8
20260506221825 70 15 0.0 1.7 0.00 0.00 0.00 59 1019.8
20260506221318 70 15 0.0 1.7 0.00 0.00 0.00 60 1019.9
20260506220831 69 5 0.0 1.7 0.00 0.00 0.00 60 1019.9
20260506220344 69 5 0.0 1.7 0.00 0.00 0.00 60 1019.9
20260506215839 69 333 0.0 0.0 0.00 0.00 0.00 61 1020.0
20260506215333 68 333 0.0 1.7 0.00 0.00 0.00 62 1019.9
20260506214824 68 333 0.0 2.6 0.00 0.00 0.00 62 1019.8
20260506214320 68 11 0.0 2.6 0.00 0.00 0.00 61 1019.9
20260506213820 68 34 0.9 3.5 0.00 0.00 0.00 60 1019.8
20260506213332 67 34 0.0 3.5 0.00 0.00 0.00 63 1019.9
20260506212826 67 170 0.0 0.9 0.00 0.00 0.00 63 1020.1
20260506212338 67 170 0.0 1.7 0.00 0.00 0.00 63 1020.1
20260506211833 67 170 0.0 1.7 0.00 0.00 0.00 64 1020.1
20260506211326 67 229 0.0 0.9 0.00 0.00 0.00 64 1020.3
20260506210839 67 229 0.0 1.7 0.00 0.00 0.00 65 1020.3
20260506210330 67 228 0.0 1.7 0.00 0.00 0.00 65 1020.4
20260506205843 67 246 0.9 1.7 0.00 0.00 0.00 65 1020.4
20260506205321 67 246 0.9 1.7 0.00 0.00 0.00 65 1020.4
20260506204818 67 24 0.0 0.9 0.00 0.00 0.00 66 1020.3
20260506204350 66 24 0.0 0.9 0.00 0.00 0.00 66 1020.3
20260506203823 66 24 0.0 0.9 0.00 0.00 0.00 66 1020.3
20260506203315 66 24 0.0 0.9 0.00 0.00 0.00 67 1020.3
20260506202829 66 24 0.0 2.6 0.00 0.00 0.00 66 1020.3
20260506202322 65 24 0.0 3.5 0.00 0.00 0.00 67 1020.3
20260506201814 65 24 0.0 1.7 0.00 0.00 0.00 68 1020.3
20260506201329 65 335 0.0 0.9 0.00 0.00 0.00 68 1020.4
20260506200824 64 228 0.0 1.7 0.00 0.00 0.00 69 1020.4
20260506200319 64 228 0.9 1.7 0.00 0.00 0.00 70 1020.5
20260506195834 64 228 0.0 0.9 0.00 0.00 0.00 69 1020.5
20260506195328 64 252 0.0 0.9 0.00 0.00 0.00 69 1020.6
20260506194820 64 252 0.0 1.7 0.00 0.00 0.00 69 1020.7
20260506194332 64 252 0.0 1.7 0.00 0.00 0.00 69 1020.7
20260506193844 64 248 0.0 0.9 0.00 0.00 0.00 70 1020.8
20260506193315 64 248 0.0 0.9 0.00 0.00 0.00 69 1020.7
20260506192831 64 248 0.0 0.9 0.00 0.00 0.00 70 1020.7
20260506192343 63 251 0.0 0.9 0.00 0.00 0.00 70 1020.7
20260506191820 63 243 0.0 0.9 0.00 0.00 0.00 68 1020.7
20260506191335 63 243 0.0 1.7 0.00 0.00 0.00 69 1020.6
20260506190828 63 243 0.0 1.7 0.00 0.00 0.00 71 1020.6
20260506190320 63 272 0.0 1.7 0.00 0.00 0.00 70 1020.6
20260506185852 63 280 0.0 1.7 0.00 0.00 0.00 69 1020.6
20260506185326 63 211 0.0 1.7 0.00 0.00 0.00 70 1020.7
20260506184818 63 211 0.0 2.6 0.00 0.00 0.00 69 1020.6
20260506184333 63 211 0.9 2.6 0.00 0.00 0.00 70 1020.6
20260506183829 63 209 0.0 1.7 0.00 0.00 0.00 70 1020.5
20260506183325 63 209 0.0 0.9 0.00 0.00 0.00 71 1020.5
20260506182819 62 210 0.0 1.7 0.00 0.00 0.00 70 1020.5
20260506182331 62 209 0.0 1.7 0.00 0.00 0.00 71 1020.6
20260506181826 62 209 0.0 0.9 0.00 0.00 0.00 71 1020.7
20260506181322 62 277 0.0 3.5 0.00 0.00 0.00 72 1020.6
20260506180837 61 277 0.0 3.5 0.00 0.00 0.00 73 1020.6
20260506180330 61 308 0.0 1.7 0.00 0.00 0.00 73 1020.6
20260506175821 61 308 0.0 0.9 0.00 0.00 0.00 74 1020.6
20260506175319 61 308 0.0 0.9 0.00 0.00 0.00 73 1020.7
20260506174851 60 308 0.0 0.9 0.00 0.00 0.00 75 1020.7
20260506174323 60 265 0.0 0.9 0.00 0.00 0.00 75 1020.7
20260506173816 60 265 0.0 0.9 0.00 0.00 0.00 75 1020.6
20260506173332 60 265 0.0 0.9 0.00 0.00 0.00 76 1020.5
20260506172824 60 265 0.0 0.9 0.00 0.00 0.00 76 1020.4
20260506172319 60 267 0.0 0.9 0.00 0.00 0.00 76 1020.4
20260506171853 59 267 0.0 0.9 0.00 0.00 0.00 76 1020.4
20260506171324 59 267 0.0 1.7 0.00 0.00 0.00 76 1020.4
20260506170821 59 267 0.0 1.7 0.00 0.00 0.00 76 1020.3
20260506170334 59 267 0.0 1.7 0.00 0.00 0.00 77 1020.5
20260506165827 59 267 0.0 1.7 0.00 0.00 0.00 77 1020.4
20260506165320 59 267 0.0 0.0 0.00 0.00 0.00 76 1020.6
20260506164833 59 267 0.0 0.0 0.00 0.00 0.00 76 1020.5
20260506164326 59 267 0.0 0.0 0.00 0.00 0.00 76 1020.4
20260506163840 59 267 0.0 1.7 0.00 0.00 0.00 76 1020.5
20260506163354 59 267 0.0 1.7 0.00 0.00 0.00 76 1020.4
20260506162826 59 246 0.0 0.0 0.00 0.00 0.00 77 1020.5
20260506162323 59 246 0.0 0.0 0.00 0.00 0.00 77 1020.4
20260506161815 59 246 0.0 0.0 0.00 0.00 0.00 77 1020.2
20260506161331 58 246 0.0 0.0 0.00 0.00 0.00 77 1020.3
20260506160826 58 246 0.0 0.0 0.00 0.00 0.00 77 1020.2
20260506160319 58 246 0.0 0.0 0.00 0.00 0.00 77 1020.2
20260506155831 58 246 0.0 0.0 0.00 0.00 0.00 77 1019.9
20260506155326 58 246 0.0 0.0 0.00 0.00 0.00 78 1019.9
20260506154824 58 246 0.0 1.7 0.00 0.00 0.00 78 1020.0
20260506154316 58 247 0.0 1.7 0.00 0.00 0.00 78 1019.6
20260506153827 58 19 0.0 1.7 0.00 0.00 0.00 77 1019.4
20260506153323 58 19 0.9 1.7 0.00 0.00 0.00 78 1019.7
20260506152816 58 19 0.0 0.0 0.00 0.00 0.00 78 1020.1
20260506152329 58 19 0.0 0.0 0.00 0.00 0.00 77 1020.3
20260506151822 58 19 0.0 0.0 0.00 0.00 0.00 77 1020.3
20260506151334 58 19 0.0 0.0 0.00 0.00 0.00 77 1020.5
20260506150846 58 19 0.0 0.9 0.00 0.00 0.00 76 1020.5
20260506150321 58 19 0.0 0.0 0.00 0.00 0.00 77 1020.4
20260506145817 58 19 0.0 0.0 0.00 0.00 0.00 77 1020.3
20260506145329 58 19 0.0 0.0 0.00 0.00 0.00 77 1020.3
20260506144823 58 19 0.0 0.0 0.00 0.00 0.00 77 1020.3
20260506144314 58 19 0.0 0.0 0.00 0.00 0.00 77 1020.1
20260506143829 58 19 0.0 0.0 0.00 0.00 0.00 77 1020.2
20260506143323 58 19 0.0 1.7 0.00 0.00 0.00 77 1020.1
20260506142820 58 19 0.0 1.7 0.00 0.00 0.00 77 1019.9
20260506142319 58 19 0.0 2.6 0.00 0.00 0.00 77 1019.7
20260506141832 58 19 0.0 4.3 0.00 0.00 0.00 77 1019.7
20260506141348 58 36 0.9 4.3 0.00 0.00 0.00 77 1019.4
20260506140819 58 20 0.0 2.6 0.00 0.00 0.00 77 1019.4
20260506140353 58 30 0.0 2.6 0.00 0.00 0.00 77 1019.4
20260506135849 58 30 0.0 2.6 0.00 0.00 0.00 77 1019.4
20260506135320 58 30 0.0 2.6 0.00 0.00 0.00 77 1019.5
20260506134832 58 28 0.0 2.6 0.00 0.00 0.00 77 1019.5
20260506134327 58 22 0.0 1.7 0.00 0.00 0.00 77 1019.3
20260506133823 58 22 0.0 1.7 0.00 0.00 0.00 77 1019.4
20260506133317 58 22 0.0 0.0 0.00 0.00 0.00 77 1019.3
20260506132833 58 22 0.0 0.0 0.00 0.00 0.00 77 1019.2
20260506132325 58 22 0.0 0.0 0.00 0.00 0.00 77 1019.2
20260506131817 58 22 0.0 0.0 0.00 0.00 0.00 77 1019.1
20260506131330 58 22 0.0 0.0 0.00 0.00 0.00 77 1019.1
20260506130823 58 22 0.0 0.9 0.00 0.00 0.00 77 1019.0
20260506130335 58 22 0.0 0.9 0.00 0.00 0.00 77 1019.0
20260506125829 58 22 0.0 0.0 0.00 0.00 0.00 76 1019.0
20260506125326 58 22 0.0 0.0 0.00 0.00 0.00 76 1019.0
20260506124818 58 22 0.0 0.0 0.00 0.00 0.00 76 1018.9
20260506124334 58 22 0.0 0.0 0.00 0.00 0.00 76 1018.9
20260506123826 58 22 0.0 0.0 0.00 0.00 0.00 76 1018.8
20260506123320 58 22 0.0 0.0 0.00 0.00 0.00 76 1018.7
20260506122833 58 22 0.0 0.0 0.00 0.00 0.00 76 1018.9
20260506122324 58 22 0.0 0.0 0.00 0.00 0.00 76 1018.9
20260506121816 58 22 0.0 0.0 0.00 0.00 0.00 76 1018.9
20260506121332 59 22 0.0 0.0 0.00 0.00 0.00 76 1018.9
20260506120826 59 22 0.0 0.0 0.00 0.00 0.00 76 1018.8
20260506120319 59 22 0.0 0.0 0.00 0.00 0.00 76 1018.8
20260506115832 59 22 0.0 0.0 0.00 0.00 0.00 76 1018.7
20260506115324 59 22 0.0 0.0 0.00 0.00 0.00 76 1018.7
20260506114838 59 22 0.0 0.0 0.00 0.00 0.00 76 1018.6
20260506114328 59 22 0.0 0.0 0.00 0.00 0.00 75 1018.5
20260506113825 59 22 0.0 0.0 0.00 0.00 0.00 75 1018.5
20260506113322 59 22 0.0 0.0 0.00 0.00 0.00 75 1018.4
20260506112855 59 22 0.0 0.0 0.00 0.00 0.00 75 1018.4
20260506112325 59 22 0.0 0.0 0.00 0.00 0.00 75 1018.4
20260506111837 59 22 0.0 0.0 0.00 0.00 0.00 75 1018.3
20260506111329 59 22 0.0 0.9 0.00 0.00 0.00 74 1018.3
20260506110821 59 22 0.0 0.9 0.00 0.00 0.00 75 1018.3
20260506110317 59 22 0.0 0.0 0.00 0.00 0.00 75 1018.2
20260506105830 59 22 0.0 0.0 0.00 0.00 0.00 75 1018.1
20260506105344 59 22 0.0 0.0 0.00 0.00 0.00 75 1018.0
20260506104815 59 22 0.0 0.0 0.00 0.00 0.00 75 1017.9
20260506104331 59 22 0.0 0.0 0.00 0.00 0.00 75 1017.8
20260506103828 59 22 0.0 0.0 0.00 0.00 0.00 75 1017.8
20260506103324 59 22 0.0 0.0 0.00 0.00 0.00 75 1017.7
20260506102817 59 22 0.0 0.0 0.00 0.00 0.00 74 1017.7
20260506102333 59 22 0.0 0.0 0.00 0.00 0.00 74 1017.6
20260506101846 59 22 0.0 0.0 0.00 0.00 0.00 74 1017.5
20260506101317 59 22 0.0 0.0 0.00 0.00 0.00 75 1017.4
20260506100833 59 22 0.0 0.0 0.00 0.00 0.00 74 1017.4
20260506100326 59 22 0.0 0.0 0.00 0.00 0.00 74 1017.4
20260506095821 60 22 0.0 0.0 0.00 0.00 0.00 74 1017.4